sat.trackr.live / text

‹ back to catalog

GRITSS

NORAD 69931 · 2026-156BQ

PAYLOAD ACTIVE UNKNOWN

§ Identity

Operator
Country
US
Launch date
2026-07-07
Launch site
AFWTR
Launch vehicle
Mass (kg)
RCS (m²)

External: N2YO · Heavens-Above · Gunter

§ Orbital elements

Epoch: 2026-09-18T23:03:08.280000Z

Period
96.48 min
Inclination
97.7434°
Eccentricity
0.0007669
Mean motion
14.92472407 rev/d
Perigee alt
584.9 km
Apogee alt
595.6 km
Semi-major
6,968.4 km
B*
1.3123e-4
RAAN
161.2359°
Arg perigee
270.7551°
Mean anomaly
89.2789°
Rev number
1,098

§ Raw data

GRITSS1 69931U 26156BQ  26261.96051250  .00001290  00000+0  13123-3 0  99972 69931  97.7434 161.2359 0007669 270.7551  89.2789 14.92472407 10987

JSON: /api/v1/satellites/69931 · /tle

For live sub-satellite position, see the globe view (requires WebGL).

§ Visibility from observer

Set your observer location to see the next 7 days of passes ≥ 10°. The values pass through the URL so the page stays shareable.

No JS? Fill the form by hand. The geolocation button needs JavaScript.